Location: Munkebjergskolens Observatorium
(55.3864°N, 10.3987°E)
Time: 05:20:56
(UTC+02:00)

KKS-1 - Pass Details

Date: 02 April 2023
Orbit: 633 x 644 km, 98.2° (Epoch: 31 May)

Event Time Altitude Azimuth Distance (km) Brightness Sun altitude
Rises 01:53:56 0° 7° (N) 2,947 ? -29.5°
Reaches altitude 10° 01:56:48 10° 347° (NNW) 2,033 ? -29.4°
Maximum altitude 01:59:34 17° 308° (NW) 1,633 ? -29.4°
Enters shadow 02:00:00 16° 301° (WNW) 1,643 ? -29.4°
